Dewpoint
55 51 45 40 31 21 16 14 15 12 9 20 24 22 27 34 42 44 62 65 67 69 70 71 71 72 72 73 73 73 73 74 73 73 73 73 73 73 73 73 73 74 74 73 72 71 71 71 71
47 42 37 34 23 16 14 15 13 10 20 23 22 22 28 39 48 55 60 64 67 68 69 70 71 71 72 72 73 73 74 74 73 73 73 73 73 73 73 72 72 72 73 73 72 71 71 71 71
43 40 35 30 23 17 15 13 14 20 22 21 21 20 29 40 51 52 61 65 65 67 69 70 70 71 72 72 73 73 73 73 73 73 73 73 73 73 73 72 72 73 73 73 72 72 71 71 70
38 44 41 22 19 18 16 16 14 16 21 19 19 20 31 43 50 54 62 63 64 66 68 69 69 71 72 73 73 73 72 71 72 73 73 73 73 73 72 71 71 73 73 73 72 72 71 69 69
38 40 26 19 17 16 15 14 14 11 17 21 18 20 34 49 51 55 60 62 63 67 68 69 69 70 72 73 73 73 71 71 72 72 73 73 73 72 71 71 71 71 71 72 71 71 70 69 68
38 33 23 20 18 17 16 15 13 13 18 22 20 24 36 49 49 53 58 64 68 67 68 69 70 70 71 72 72 72 71 71 72 72 72 72 72 71 71 70 71 71 70 70 70 69 69 69 68
38 32 25 23 21 19 17 17 17 17 18 19 23 20 35 46 51 56 61 69 69 69 68 68 69 70 70 70 70 70 71 71 71 71 71 71 70 70 71 70 70 69 69 69 69 69 68 68 68
36 33 30 27 21 19 18 17 16 14 15 19 19 18 22 43 53 58 61 68 69 69 68 68 68 68 67 68 69 69 70 70 69 70 70 70 69 69 69 69 69 69 68 68 68 68 68 67 67
32 30 27 27 25 24 22 21 21 17 15 15 22 22 47 51 54 56 60 63 66 69 69 68 68 68 67 67 69 69 70 69 69 70 68 69 69 69 69 68 68 68 67 68 67 67 67 66 66
30 29 28 28 26 26 25 23 22 15 14 15 24 43 44 50 52 54 57 60 63 65 68 68 68 68 68 68 68 67 69 69 69 69 68 69 69 68 68 68 67 67 67 67 67 67 66 65 64
25 27 29 28 28 27 25 24 23 17 15 17 20 37 41 41 51 51 55 60 61 63 66 68 68 68 68 67 67 68 68 68 68 68 68 67 69 68 67 67 66 66 66 66 66 65 65 64 63
20 23 26 27 27 26 25 25 25 23 19 22 19 32 38 39 42 51 50 56 60 62 62 66 67 67 67 66 67 67 67 67 67 67 67 68 67 66 66 66 65 65 64 64 64 64 63 64 63
15 19 21 23 26 26 26 25 25 25 27 28 27 27 28 35 37 40 48 50 60 60 60 63 66 67 66 65 67 67 67 67 67 67 67 68 67 66 66 65 65 65 64 63 64 63 63 63 63
22 20 20 21 22 24 26 25 26 26 28 26 26 25 25 31 31 30 31 33 43 59 59 60 63 66 65 65 65 65 66 67 67 67 67 67 67 66 66 65 65 65 65 64 64 63 63 63 62
22 21 22 23 20 22 24 24 24 26 27 27 26 25 26 26 28 29 29 31 34 45 57 58 63 65 65 64 66 65 67 67 67 67 67 67 67 66 66 65 64 65 64 63 64 63 62 62 63
5 14 17 20 23 22 23 21 25 27 26 25 26 25 26 26 27 27 29 29 32 36 53 58 62 65 66 65 64 65 67 67 66 67 67 67 67 67 66 65 64 64 63 63 63 62 62 62 62
6 10 13 18 21 22 22 21 24 26 26 25 26 26 26 26 28 29 29 30 29 36 38 58 62 64 65 66 66 65 65 67 67 66 67 65 67 66 65 65 64 64 63 62 62 61 61 62 61
8 10 12 18 19 21 21 21 22 23 24 25 26 26 26 26 27 28 30 31 29 30 38 58 62 64 65 66 66 65 65 65 65 66 66 65 65 66 65 65 64 64 62 61 62 61 60 61 61
13 15 12 17 20 20 20 20 19 21 21 22 23 24 25 26 27 28 29 30 31 38 44 56 64 65 66 65 65 64 64 64 63 64 65 66 65 66 66 64 64 65 63 62 62 62 61 60 60
13 11 16 18 20 23 22 26 21 26 22 20 21 24 26 30 30 28 28 37 37 42 46 46 58 65 66 65 64 64 64 64 63 63 64 64 64 65 65 65 63 63 62 62 62 60 59 59 61
12 10 12 17 28 31 27 27 28 29 23 23 22 24 28 30 30 32 38 39 42 44 44 45 48 51 60 64 63 63 62 62 61 61 62 63 63 64 64 64 63 62 61 60 60 60 59 57 59
10 10 10 13 16 28 29 20 25 28 23 22 22 22 26 29 31 31 40 42 42 44 48 48 51 51 52 53 59 61 61 59 60 61 61 62 64 64 64 64 63 61 60 60 60 60 59 57 56
12 13 9 12 22 30 28 26 22 22 21 21 23 25 22 27 25 32 39 41 42 45 48 50 51 51 52 53 55 61 60 61 60 60 60 60 63 64 64 63 62 61 60 59 59 59 58 58 57
13 12 13 26 30 27 24 23 20 19 20 21 22 24 25 27 35 38 39 42 46 46 47 47 47 48 50 53 54 61 60 60 59 60 60 61 61 63 62 63 62 61 60 59 59 59 58 58 57
11 8 22 24 25 20 22 20 21 21 21 21 22 24 34 33 35 38 43 44 44 45 45 45 46 46 47 49 51 54 61 60 59 60 60 60 60 61 62 62 62 60 59 59 59 58 58 57 57
13 24 23 19 18 17 18 19 19 22 22 23 22 34 36 35 40 43 43 42 43 44 45 45 44 44 45 48 50 51 53 61 60 60 61 60 60 61 62 62 61 60 59 59 59 58 58 57 57
20 20 25 26 26 24 18 17 19 21 25 28 32 33 35 39 41 41 42 42 43 44 45 44 44 44 44 45 47 48 52 58 60 60 60 61 61 61 62 62 61 60 60 59 58 58 57 57 56
19 21 24 30 23 23 28 19 21 27 32 37 43 41 42 42 42 42 42 43 43 44 44 44 43 42 42 43 44 46 49 52 60 60 59 61 61 61 61 61 61 60 59 59 58 57 57 56 56
23 20 26 30 24 20 25 28 31 33 33 40 44 45 44 41 40 40 40 41 41 41 41 41 41 41 41 41 42 44 46 51 59 59 59 60 60 60 61 60 59 59 58 58 58 57 57 56 56
28 27 23 22 22 21 25 29 38 42 42 44 44 42 41 39 39 39 39 39 39 39 39 39 39 39 40 40 41 43 46 56 58 58 59 60 59 60 59 58 58 58 58 58 57 56 56 55 55
Lifted_Index
10 10 9 8 6 5 3 2 1 2 2 2 2 2 2 1 -0 -1 -2 -2 -2 -3 -3 -4 -4 -4 -4 -4 -5 -5 -5 -5 -5 -5 -5 -5 -5 -4 -4 -5 -5 -5 -6 -6 -6 -6 -5 -5 -4
10 9 9 7 5 3 2 2 2 2 2 2 2 2 2 1 -0 -1 -2 -2 -2 -3 -3 -3 -3 -4 -4 -4 -5 -5 -5 -5 -5 -5 -5 -5 -5 -5 -5 -5 -5 -5 -5 -6 -6 -6 -5 -5 -4
10 9 8 6 4 3 2 2 2 2 2 2 2 2 2 1 -0 -1 -2 -3 -3 -3 -3 -3 -3 -3 -4 -4 -4 -5 -5 -5 -5 -5 -5 -5 -5 -5 -5 -5 -5 -5 -6 -6 -6 -6 -5 -5 -4
9 7 6 5 4 3 2 2 2 2 2 1 2 2 1 1 -0 -1 -2 -3 -3 -3 -3 -2 -3 -3 -4 -4 -4 -5 -5 -5 -5 -5 -6 -6 -6 -5 -5 -5 -5 -5 -6 -6 -6 -6 -5 -4 -4
7 6 5 4 4 3 3 3 2 2 1 1 2 2 1 0 -0 -1 -2 -3 -3 -3 -2 -2 -2 -3 -3 -4 -4 -4 -4 -4 -5 -5 -6 -6 -6 -5 -5 -5 -5 -5 -5 -6 -5 -5 -4 -4 -4
6 6 5 4 4 4 3 3 2 2 1 1 2 2 1 0 -0 -1 -2 -3 -4 -3 -2 -2 -2 -2 -3 -4 -4 -4 -4 -4 -5 -5 -6 -6 -6 -5 -5 -5 -5 -5 -5 -5 -4 -4 -4 -3 -3
5 5 5 5 4 4 4 3 3 2 1 1 2 2 1 -0 -0 -1 -2 -4 -4 -3 -2 -2 -1 -2 -2 -3 -4 -4 -4 -4 -4 -5 -5 -5 -5 -5 -5 -5 -5 -4 -4 -4 -4 -4 -3 -3 -3
5 5 6 6 5 4 4 4 3 2 2 1 2 2 1 -1 -1 -1 -2 -4 -5 -4 -3 -2 -1 -1 -1 -2 -3 -3 -4 -4 -4 -4 -5 -5 -5 -5 -5 -4 -4 -4 -3 -3 -3 -3 -3 -3 -3
5 5 6 6 5 5 4 4 3 3 2 2 2 1 -1 -2 -2 -2 -2 -4 -5 -5 -4 -3 -2 -1 -1 -1 -2 -3 -3 -3 -4 -4 -4 -5 -5 -5 -4 -4 -4 -3 -3 -3 -3 -3 -3 -3 -3
6 6 6 5 5 5 4 4 3 3 3 3 2 1 -1 -2 -2 -2 -2 -3 -4 -5 -5 -4 -3 -2 -2 -2 -2 -2 -3 -3 -3 -4 -4 -5 -5 -5 -4 -4 -3 -3 -3 -3 -2 -2 -2 -2 -2
6 6 6 5 5 5 4 4 3 3 3 3 3 2 0 -1 -1 -2 -2 -3 -4 -4 -5 -5 -4 -4 -3 -3 -2 -2 -2 -3 -3 -4 -4 -5 -5 -5 -4 -4 -3 -3 -2 -2 -2 -2 -2 -2 -2
6 6 6 6 5 5 4 4 3 3 3 3 3 3 2 1 0 -1 -1 -2 -3 -4 -5 -5 -5 -5 -4 -4 -3 -3 -3 -3 -3 -3 -4 -4 -5 -4 -4 -4 -3 -3 -2 -2 -2 -1 -1 -2 -2
7 7 7 6 6 5 4 4 4 3 3 3 4 4 4 3 3 2 0 -1 -3 -4 -4 -5 -5 -5 -5 -5 -4 -4 -4 -4 -3 -4 -4 -4 -5 -4 -4 -4 -3 -3 -2 -2 -2 -2 -2 -2 -2
7 7 7 7 7 6 4 4 4 4 3 3 4 4 5 4 4 4 2 1 -1 -2 -3 -4 -5 -5 -5 -5 -4 -4 -4 -4 -4 -4 -4 -4 -5 -5 -4 -4 -3 -3 -3 -3 -2 -2 -2 -2 -2
7 7 7 7 7 6 4 4 4 4 3 4 4 4 4 5 5 5 4 3 2 0 -2 -3 -4 -5 -5 -5 -5 -5 -5 -5 -5 -5 -4 -4 -5 -5 -5 -4 -4 -3 -3 -3 -3 -2 -2 -2 -2
7 6 5 6 6 5 4 4 5 4 4 4 4 4 4 4 5 5 5 4 4 2 0 -2 -3 -4 -5 -5 -5 -5 -5 -5 -5 -5 -5 -5 -5 -5 -5 -4 -4 -3 -3 -3 -2 -2 -2 -2 -2
6 5 5 5 6 5 4 4 4 4 3 3 4 4 3 4 4 5 5 5 4 3 1 -2 -3 -4 -5 -5 -5 -5 -5 -5 -5 -5 -5 -5 -5 -5 -5 -5 -4 -4 -3 -3 -2 -2 -2 -2 -1
5 5 6 6 6 4 3 3 4 3 3 3 4 4 3 3 4 4 4 4 4 4 2 -1 -3 -4 -5 -5 -6 -5 -5 -5 -5 -5 -5 -5 -4 -4 -4 -4 -4 -4 -3 -3 -2 -2 -2 -1 -1
5 5 6 6 5 3 2 2 2 2 2 3 3 4 4 3 3 3 3 3 3 3 2 -0 -3 -4 -5 -5 -5 -6 -5 -5 -5 -5 -5 -5 -4 -4 -4 -4 -4 -4 -3 -3 -2 -2 -2 -1 -1
4 4 5 5 3 1 0 1 1 2 2 3 3 3 3 3 3 3 3 3 3 3 3 1 -2 -4 -5 -5 -5 -5 -5 -5 -5 -5 -4 -4 -4 -4 -4 -4 -4 -4 -3 -2 -2 -2 -1 -1 -0
3 2 3 3 2 0 -0 -0 1 1 1 2 3 3 3 2 2 2 2 2 2 2 2 2 0 -2 -3 -3 -4 -4 -5 -5 -5 -5 -4 -4 -4 -4 -3 -3 -3 -3 -3 -2 -1 -1 -1 -0 0
2 1 2 2 1 0 -0 0 1 1 1 2 2 3 3 2 1 1 1 2 2 2 2 2 1 1 -0 -1 -2 -3 -4 -4 -4 -4 -4 -3 -3 -3 -3 -3 -3 -3 -3 -2 -1 -0 0 0 0
1 1 1 1 0 0 0 0 1 1 1 1 2 2 3 2 1 1 1 2 2 3 2 2 2 2 2 1 0 -1 -2 -3 -3 -3 -3 -3 -2 -2 -3 -3 -3 -3 -2 -2 -0 0 1 1 1
1 1 1 0 -0 0 0 1 1 1 1 1 1 2 2 2 2 1 1 2 3 3 4 4 3 3 2 2 1 -0 -1 -2 -2 -2 -2 -2 -1 -1 -2 -2 -3 -3 -3 -2 -0 1 1 1 1
1 1 0 -0 -0 0 1 1 2 2 2 1 1 1 1 1 1 1 1 2 3 4 4 4 3 3 2 2 2 1 -0 -1 -2 -2 -1 -1 -0 -1 -1 -2 -2 -3 -3 -2 -0 1 1 1 1
0 -0 -0 -0 -0 0 1 2 2 2 2 2 1 1 0 0 0 1 1 2 3 3 4 4 4 3 3 4 4 3 2 0 -1 -1 -1 -0 -0 -0 -1 -1 -2 -2 -2 -2 -0 1 1 1 1
-0 -0 -1 -1 -0 0 1 1 1 1 1 1 1 0 -0 -1 -0 0 1 2 2 2 3 4 5 5 5 6 6 5 4 2 -0 -1 -0 -0 -1 -1 -0 -1 -1 -2 -2 -1 0 1 1 1 1
-0 -0 -0 -0 -0 0 1 1 1 0 0 0 0 0 -0 -0 0 1 2 2 1 1 2 4 5 6 6 6 7 6 5 3 1 -0 0 -0 -1 -1 -0 -0 -0 -1 -2 -1 0 1 1 1 1
-0 0 0 0 0 1 1 1 0 -0 -0 -0 -0 0 0 0 0 1 1 1 0 1 2 3 5 6 6 6 6 5 4 2 1 1 1 0 -1 -1 -1 -0 0 -0 -1 -0 1 1 1 1 1
-0 -0 0 1 1 1 1 1 0 -0 -1 -1 -0 0 0 0 0 0 0 -0 0 1 2 3 5 5 6 6 6 4 3 2 1 1 1 0 -0 -1 -1 -0 1 1 0 0 1 1 1 1 2